STARLINK-1500, 45744

Orbit data source: Space-Track

STARLINK-1500, 45744 is a payload satellite owned by SpaceX/Seattle (US) in LEO that was launched on Sat, 13 Jun 2020 UTC via an FALCON 9 launch vehicle from the Air Force Eastern Test Range (AFETR). Payloads include a variety of satellites, spacecraft, and rockets equipped with specific instruments for various scientific and technological missions. These include communications satellites like Starlink; space stations such as the ISS; scientific satellites like the Hubble; Earth observation satellites from companies like Planet Labs, Umbra, and HawkEye 360; GPS; miniature CubeSats for education and research; and military/defense satellites.

Loading next visibility...
STARLINK-1500 details
Identifier
45744, 2020-038Q
Orbit
LEO
Last TLE update5 hours ago
Origin
Flag of USSpaceX/Seattle (US)
ManufacturerSpaceX/Seattle
MissionOperational Commercial Communications
Bus & MotorSTARLINK, Unknown motor
Mass260 kg wet, ~248 kg dry
Launch date (UTC)
2020-06-13 (4 years ago)
Launch vehicle
FALCON 9
Launch site
Air Force Eastern Test Range (AFETR)
Object type
Payload
Rocket body
Debris
Shape & HBRBox + 1 Pan, 8.86 m
Radar Cross Section13.562 m², Large (>1 m²)

Expand to show TLE details & history

TLE from 5 hours ago
0 STARLINK-1500
1 45744U 20038Q   24337.10759377 -.00000621  00000-0 -22775-4 0  9993
2 45744  53.0518 153.2300 0001593  96.7877 263.3294 15.06392847247393
Epoch: 2024-12-02T02:34Z
Definitive object data (Epoch: 2024-12-02T02:34:56.101Z)
Latitude0.00003°
Longitude43.06007°
Altitude548.241 km
Speed7.589 km/s
True Right ascension10h 12m 55s
True Declination0° 00' 00"
Sunlit
Object was in daylight at TLE epoch
Visualization TLE readout
Latitude40.01828°
Longitude-176.84615°
Altitude549.857 km
Speed7.593 km/s
Apparent Right ascension18h 39m 36s
Apparent Declination2° 05' 38"
Sunlit
Object is in daylight
Visualization observer readout
Local Sidereal Time05:41:16
Azimuth338.799° N
Elevation-45.918°
Doppler factor1
Orbital elements
Apogee altitude548.608 km
Perigee altitude546.401 km
Semi-major axis6,925.642 km
Eccentricity0.0001593
Inclination53.0518°
RAAN153.23°
Arg. of periapsis96.7877°
True anomaly263.31127°
Mean anomaly263.3294°
Eccentric anomaly263.32033°
Mean motion3.76576 °/min
BSTAR-0.000022775
Orbital period95.6 mins
Loading maneuver chart data...
Loading historical data...
Loading historical data...
Loading historical data...
Loading historical data...
Loading historical data...
Loading historical data...
Loading historical data...

STARLINK-1500 Visibility forecast

Observer location: undefined°, undefined

Span
Click to sort rows by Start time (UTC) header in descending order
Start Az.
Max El. time (UTC)
Max El. Az.
Max El.
End time (UTC)
End Az.
6 mins2024-12-02 13:53:07.653Z183.071° SSW2024-12-02 13:56:07.653Z121.243° SE25.234°2024-12-02 13:59:07.653Z72.171° E
5 mins2024-12-02 15:33:07.653Z269.766° W2024-12-02 15:35:07.653Z325.094° NNW33.744°2024-12-02 15:38:07.653Z33.755° NE
5 mins2024-12-02 20:35:07.653Z342.061° N2024-12-02 20:37:07.653Z34.048° NE29.131°2024-12-02 20:40:07.653Z91.971° ESE
6 mins2024-12-02 22:14:07.653Z285.379° WNW2024-12-02 22:16:07.653Z242.837° WSW31.045°2024-12-02 22:20:07.653Z159.883° S
|